User: anonymous   Login
Location: Unspecified
(0.0000°N, 0.0000°E)
Time: 03:16:11
(UTC+00:00)
Language:

PAYLOAD D - Orbit

View from above orbital plane
View from above orbital plane
View from above satellite
View from above satellite

Ground track
Ground track

The orbit data is extracted from the following two-line orbital elements,

1 27058U 01058D   24107.74815157  .00000025  00000-0  79564-4 0  9990
2 27058  82.5382 349.5953 0003367   8.5533 351.5615 12.62056663 27151
Epoch (UTC): 16 April 2024 17:57:20
Eccentricity: 0.0003367
inclination: 82.5382°
perigee height: 1412 km
apogee height: 1417 km
right ascension of ascending node: 349.5953°
argument of perigee: 8.5533°
revolutions per day: 12.62056663
mean anomaly at epoch: 351.5615°
orbit number at epoch: 2715

The dashed part of the orbit path shows where the satellite is in the earth's shadow,  

DLR